Location: Theodore Roosevelt National Park
(46.9990°N, 103.4631°W)
Time: 05:03:38
(UTC-06:00)

Iridium 37 - Visible Passes

Search period start: 28 August 2014 00:00
Search period end: 07 September 2014 00:00
Orbit: 776 x 779 km, 86.4° (Epoch: 27 August)

Date Brightness Start Highest point End Pass type
(mag) Time Alt. Az. Time Alt. Az. Time Alt. Az.
28 Aug 6.9 03:39:11 10° SSE 03:43:53 36° E 03:48:37 10° NNE visible
28 Aug 6.4 05:20:02 10° SW 05:24:38 31° WNW 05:29:16 10° NNW visible
29 Aug 7.7 03:06:47 10° SE 03:10:37 21° ENE 03:14:28 10° NNE visible
29 Aug 5.7 04:46:23 13° SSW 04:50:56 54° W 04:56:03 10° N visible
30 Aug 8.2 02:35:29 10° E 02:37:29 12° ENE 02:39:29 10° NE visible
30 Aug 5.5 04:13:28 18° S 04:17:21 88° E 04:22:35 10° N visible
31 Aug 6.3 03:40:32 20° SSE 03:43:53 50° E 03:48:55 10° NNE visible
31 Aug 6.8 05:21:02 11° SW 05:24:55 23° WNW 05:29:01 10° NNW visible
01 Sep 7.2 03:07:34 17° SE 03:10:33 29° E 03:14:59 10° NNE visible
01 Sep 6.1 04:48:04 20° SW 04:51:07 38° W 04:55:59 10° N visible
02 Sep 7.9 02:34:34 12° ESE 02:37:20 17° ENE 02:40:38 10° NE visible
02 Sep 5.5 04:15:04 32° SSW 04:17:28 67° W 04:22:40 10° N visible
03 Sep 5.7 03:42:03 40° SSE 03:43:56 71° E 03:49:08 10° N visible
03 Sep 7.1 05:22:33 12° WSW 05:25:14 17° WNW 05:28:32 10° NNW visible
04 Sep 6.6 03:09:00 33° ESE 03:10:31 40° E 03:15:22 10° NNE visible
04 Sep 6.5 04:49:30 23° WSW 04:51:22 28° WNW 04:55:50 10° NNW visible
05 Sep 7.4 02:35:57 22° ESE 02:37:13 24° E 02:41:18 10° NNE visible
05 Sep 5.8 04:16:26 40° WSW 04:17:37 48° W 04:22:40 10° N visible
06 Sep 8.0 02:02:52 13° E 02:04:03 14° ENE 02:06:36 10° NE visible
06 Sep 5.4 03:43:21 68° SSW 03:44:01 83° W 03:49:16 10° N visible
06 Sep 7.4 05:23:51 10° W 05:25:37 12° WNW 05:27:34 10° NW visible
